EW8300 Weather Reports


time (UTC)temp
F
wind
direction
speed
knots
gust
knots
rain 1hr
in
rain 24hr
in
rain mn
in
humidity
%
barometer
mb
20260509023106 60 226 0.0 0.9 0.00 0.00 0.00 76 1009.0
20260509021517 59 210 0.0 0.0 0.00 0.00 0.00 79 1008.8
20260509020113 60 226 0.0 0.0 0.00 0.00 0.00 80 1008.3
20260509014518 61 226 0.0 0.0 0.00 0.00 0.00 77 1008.1
20260509013026 61 226 0.0 0.0 0.00 0.00 0.00 78 1008.0
20260509011600 61 226 0.0 0.0 0.00 0.00 0.00 75 1008.0
20260509010025 62 182 0.0 0.0 0.00 0.00 0.00 69 1007.7
20260509004515 64 182 0.0 0.0 0.00 0.00 0.00 67 1007.9
20260509003056 65 182 0.0 0.0 0.00 0.00 0.00 61 1007.9
20260509001623 65 182 0.0 0.0 0.00 0.00 0.00 56 1007.9
20260509000002 66 183 0.0 0.0 0.00 0.00 0.00 53 1007.8
20260508234502 66 197 0.0 0.0 0.00 0.00 0.00 52 1007.9
20260508233009 68 199 0.0 0.0 0.00 0.00 0.00 48 1007.9
20260508231506 69 227 0.0 0.0 0.00 0.00 0.00 44 1007.9
20260508230107 69 197 0.0 0.0 0.00 0.00 0.00 46 1008.0
20260508224514 69 195 0.0 0.0 0.00 0.00 0.00 43 1007.9
20260508223019 69 228 0.0 0.0 0.00 0.00 0.00 42 1007.8
20260508221542 69 237 0.0 0.0 0.00 0.00 0.00 41 1007.8
20260508220056 70 233 0.0 0.9 0.00 0.00 0.00 41 1007.8
20260508214608 70 265 0.0 5.2 0.00 0.00 0.00 38 1007.6
20260508213012 70 224 1.7 14.8 0.00 0.00 0.00 39 1007.8
20260508211519 72 253 1.7 14.8 0.00 0.00 0.00 36 1007.9
20260508210013 72 217 0.0 10.4 0.00 0.00 0.00 38 1008.0
20260508204512 73 178 0.0 7.0 0.00 0.00 0.00 37 1008.2
20260508203012 72 175 0.0 5.2 0.00 0.00 0.00 37 1008.5
20260508201555 70 179 0.0 5.2 0.00 0.00 0.00 40 1008.8
20260508200137 71 195 0.0 8.7 0.00 0.00 0.00 38 1009.2
20260508194604 70 258 0.0 1.7 0.00 0.00 0.00 38 1009.3
20260508193010 71 312 0.0 5.2 0.00 0.00 0.00 38 1009.6
20260508191542 71 290 0.0 0.9 0.00 0.00 0.00 40 1009.7
20260508190105 72 170 0.0 7.0 0.00 0.00 0.00 37 1009.7
20260508184615 71 217 0.0 7.0 0.00 0.00 0.00 39 1009.9
20260508183026 71 160 0.0 0.9 0.00 0.00 0.00 40 1010.0
20260508181616 70 279 0.0 7.0 0.00 0.00 0.00 39 1010.4
20260508180118 70 237 0.0 1.7 0.00 0.00 0.00 37 1010.6
20260508174516 70 194 0.0 5.2 0.00 0.00 0.00 39 1011.0
20260508173106 69 249 0.0 8.7 0.00 0.00 0.00 41 1011.2
20260508171606 70 77 0.0 7.0 0.00 0.00 0.00 43 1011.6
20260508170015 70 282 0.0 5.2 0.00 0.00 0.00 46 1011.7
20260508164535 69 181 0.0 5.2 0.00 0.00 0.00 45 1012.1
20260508163008 68 244 0.0 1.7 0.00 0.00 0.00 45 1012.3
20260508161506 68 54 0.0 5.2 0.00 0.00 0.00 46 1012.7
20260508160018 67 272 0.9 11.3 0.00 0.00 0.00 46 1012.8
20260508154527 67 299 0.0 9.6 0.00 0.00 0.00 46 1013.0
20260508153109 66 291 0.0 4.3 0.00 0.00 0.00 47 1013.0
20260508151604 65 309 0.0 7.8 0.00 0.00 0.00 46 1013.4
20260508150001 64 271 0.0 8.7 0.00 0.00 0.00 47 1013.6
20260508144530 64 283 0.0 7.0 0.00 0.00 0.00 46 1013.9
20260508143101 63 63 0.0 2.6 0.00 0.00 0.00 50 1013.9
20260508141607 62 245 0.0 7.0 0.00 0.00 0.00 51 1013.7
20260508140114 61 268 0.0 3.5 0.00 0.00 0.00 53 1014.1
20260508134511 59 252 0.0 7.0 0.00 0.00 0.00 54 1014.0
20260508133105 58 206 0.0 0.9 0.00 0.00 0.00 57 1013.9
20260508131557 57 171 0.0 1.7 0.00 0.00 0.00 59 1014.1
20260508130109 55 189 0.0 7.0 0.00 0.00 0.00 60 1014.2
20260508124521 54 245 0.0 4.3 0.00 0.00 0.00 62 1014.2
20260508123055 52 207 0.0 2.6 0.00 0.00 0.00 65 1014.1
20260508121545 48 265 0.0 0.0 0.00 0.00 0.00 78 1014.0
20260508114512 41 213 0.0 0.0 0.00 0.00 0.00 93 1013.8
20260508113013 40 199 0.0 0.0 0.00 0.00 0.00 93 1013.7
20260508111558 40 199 0.0 0.0 0.00 0.00 0.00 92 1013.6
20260508110105 40 200 0.0 0.0 0.00 0.00 0.00 92 1013.5
20260508104508 40 199 0.0 0.0 0.00 0.00 0.00 92 1013.3
20260508103034 40 199 0.0 0.0 0.00 0.00 0.00 92 1013.4
20260508101544 40 199 0.0 0.0 0.00 0.00 0.00 92 1013.4
20260508100014 40 199 0.0 0.0 0.00 0.00 0.00 92 1013.4
20260508094502 40 200 0.0 0.0 0.00 0.00 0.00 92 1013.3
20260508093058 40 200 0.0 0.0 0.00 0.00 0.00 92 1013.4
20260508091608 40 199 0.0 0.0 0.00 0.00 0.00 92 1013.4
20260508090008 39 199 0.0 0.0 0.00 0.00 0.00 91 1013.3
20260508084618 39 199 0.0 0.0 0.00 0.00 0.00 90 1013.4
20260508083126 39 200 0.0 0.0 0.00 0.00 0.00 90 1013.3
20260508081547 39 199 0.0 0.0 0.00 0.00 0.00 90 1013.3
20260508080007 39 200 0.0 0.0 0.00 0.00 0.00 90 1013.4
20260508074601 40 199 0.0 0.0 0.00 0.00 0.00 89 1013.4
20260508073012 40 200 0.0 0.0 0.00 0.00 0.00 90 1013.4
20260508071539 40 199 0.0 0.0 0.00 0.00 0.00 90 1013.3
20260508070007 40 199 0.0 0.0 0.00 0.00 0.00 89 1013.4
20260508064539 40 199 0.0 0.0 0.00 0.00 0.00 89 1013.7
20260508063001 41 199 0.0 0.0 0.00 0.00 0.00 89 1013.9
20260508061600 41 200 0.0 0.0 0.00 0.00 0.00 88 1014.0
20260508060100 41 199 0.0 0.0 0.00 0.00 0.00 88 1014.2
20260508054502 41 200 0.0 0.0 0.00 0.00 0.00 88 1014.3
20260508053102 42 199 0.0 0.0 0.00 0.00 0.00 87 1014.2
20260508051555 42 200 0.0 0.0 0.00 0.00 0.00 87 1014.1
20260508050026 43 200 0.0 0.0 0.00 0.00 0.00 87 1014.1
20260508044603 42 199 0.0 0.0 0.00 0.00 0.00 87 1014.0
20260508043020 42 200 0.0 0.0 0.00 0.00 0.00 86 1014.1
20260508041626 43 199 0.0 0.0 0.00 0.00 0.00 86 1014.3
20260508040034 43 199 0.0 0.0 0.00 0.00 0.00 85 1014.1
20260508034516 44 200 0.0 0.0 0.00 0.00 0.00 85 1014.1
20260508033005 44 200 0.0 0.0 0.00 0.00 0.00 84 1014.2
20260508031539 45 199 0.0 0.0 0.00 0.00 0.00 83 1014.1
20260508030103 46 200 0.0 0.0 0.00 0.00 0.00 81 1014.1
20260508024552 46 200 0.0 0.0 0.00 0.00 0.00 79 1014.0